KD7MPG-3 Weather Reports


Display with metric or nautical units.
time (UTC)temp
F
wind
direction
speed
MPH
gust
MPH
rain 1hr
in
rain 24hr
in
rain mn
in
humidity
%
barometer
mb
20260509230444 80 31 3.0 10.0 0.00 0.00 0.00 48 1024.1
20260509225943 80 9 2.0 6.0 0.00 0.00 0.00 48 1024.3
20260509225442 79 328 2.0 6.0 0.00 0.00 0.00 48 1024.3
20260509224942 79 77 3.0 9.0 0.00 0.00 0.00 47 1024.4
20260509224443 80 5 3.0 9.0 0.00 0.00 0.00 43 1024.5
20260509223939 79 51 2.0 8.0 0.00 0.00 0.00 47 1024.4
20260509223440 79 46 2.0 8.0 0.00 0.00 0.00 50 1024.5
20260509222940 79 54 3.0 6.0 0.00 0.00 0.00 49 1024.7
20260509222439 78 5 3.0 9.0 0.00 0.00 0.00 50 1024.8
20260509221940 78 27 3.0 9.0 0.00 0.00 0.00 50 1024.9
20260509221440 78 338 3.0 9.0 0.00 0.00 0.00 49 1025.0
20260509220940 78 335 4.0 10.0 0.00 0.00 0.00 51 1025.0
20260509220436 78 279 4.0 10.0 0.00 0.00 0.00 50 1025.2
20260509215937 77 24 3.0 9.0 0.00 0.00 0.00 52 1025.2
20260509215436 77 281 3.0 8.0 0.00 0.00 0.00 50 1025.4
20260509214935 78 221 4.0 10.0 0.00 0.00 0.00 53 1025.5
20260509214437 78 338 3.0 10.0 0.00 0.00 0.00 53 1025.5
20260509213931 77 41 3.0 8.0 0.00 0.00 0.00 53 1025.5
20260509213433 77 311 3.0 9.0 0.00 0.00 0.00 54 1025.6
20260509212932 77 5 4.0 9.0 0.00 0.00 0.00 54 1025.6
20260509212431 76 61 3.0 8.0 0.00 0.00 0.00 56 1025.7
20260509211931 76 265 3.0 9.0 0.00 0.00 0.00 58 1025.8
20260509211432 76 311 3.0 9.0 0.00 0.00 0.00 57 1025.7
20260509210928 75 43 3.0 9.0 0.00 0.00 0.00 59 1025.8
20260509210427 75 20 3.0 9.0 0.00 0.00 0.00 58 1025.8
20260509205928 75 342 3.0 9.0 0.00 0.00 0.00 59 1025.9
20260509205427 75 319 3.0 9.0 0.00 0.00 0.00 60 1025.9
20260509204928 74 321 2.0 8.0 0.00 0.00 0.00 59 1026.0
20260509204427 74 338 3.0 8.0 0.00 0.00 0.00 62 1025.9
20260509203933 73 255 3.0 6.0 0.00 0.00 0.00 60 1026.0
20260509203424 73 292 2.0 8.0 0.00 0.00 0.00 62 1026.2
20260509202923 73 0 3.0 8.0 0.00 0.00 0.00 62 1026.3
20260509202421 73 5 3.0 8.0 0.00 0.00 0.00 60 1026.3
20260509201921 73 265 3.0 8.0 0.00 0.00 0.00 62 1026.4
20260509201421 73 316 2.0 8.0 0.00 0.00 0.00 63 1026.6
20260509200921 73 345 3.0 9.0 0.00 0.00 0.00 60 1026.6
20260509200417 72 355 3.0 9.0 0.00 0.00 0.00 59 1026.7
20260509195916 72 34 2.0 8.0 0.00 0.00 0.00 60 1026.7
20260509195417 71 99 2.0 9.0 0.00 0.00 0.00 60 1027.0
20260509194915 71 277 3.0 9.0 0.00 0.00 0.00 62 1027.0
20260509194413 71 274 3.0 10.0 0.00 0.00 0.00 62 1027.0
20260509193913 71 31 3.0 10.0 0.00 0.00 0.00 62 1027.0
20260509193408 71 56 3.0 8.0 0.00 0.00 0.00 64 1027.2
20260509192908 71 0 3.0 6.0 0.00 0.00 0.00 66 1027.1
20260509192413 70 0 3.0 8.0 0.00 0.00 0.00 63 1027.1
20260509191911 70 0 3.0 9.0 0.00 0.00 0.00 66 1027.2
20260509191407 70 5 3.0 9.0 0.00 0.00 0.00 65 1027.3
20260509190907 70 27 3.0 8.0 0.00 0.00 0.00 66 1027.3
20260509190401 70 351 4.0 8.0 0.00 0.00 0.00 68 1027.3
20260509185901 70 26 3.0 8.0 0.00 0.00 0.00 67 1027.5
20260509185401 69 317 3.0 7.0 0.00 0.00 0.00 67 1027.4
20260509184901 69 351 3.0 7.0 0.00 0.00 0.00 67 1027.4
20260509184401 68 347 3.0 9.0 0.00 0.00 0.00 68 1027.6
20260509183902 68 0 3.0 9.0 0.00 0.00 0.00 68 1027.7
20260509183358 68 0 4.0 11.0 0.00 0.00 0.00 67 1027.8
20260509182857 67 23 3.0 11.0 0.00 0.00 0.00 69 1027.8
20260509182355 67 5 3.0 8.0 0.00 0.00 0.00 71 1027.9
20260509181855 67 83 4.0 9.0 0.00 0.00 0.00 69 1027.8
20260509181355 67 303 3.0 9.0 0.00 0.00 0.00 71 1027.9
20260509180856 66 289 4.0 9.0 0.00 0.00 0.00 72 1027.9
20260509180353 66 324 4.0 9.0 0.00 0.00 0.00 72 1027.9
20260509175851 66 231 3.0 8.0 0.00 0.00 0.00 72 1027.9
20260509175352 65 333 3.0 8.0 0.00 0.00 0.00 74 1027.9
20260509174853 65 325 3.0 9.0 0.00 0.00 0.00 74 1027.9
20260509174349 65 288 3.0 9.0 0.00 0.00 0.00 73 1027.8
20260509173850 65 0 3.0 9.0 0.00 0.00 0.00 74 1028.0
20260509173343 64 52 2.0 6.0 0.00 0.00 0.00 74 1028.0
20260509172843 64 252 3.0 6.0 0.00 0.00 0.00 75 1028.0
20260509172343 64 76 3.0 6.0 0.00 0.00 0.00 75 1028.1
20260509171843 63 69 3.0 6.0 0.00 0.00 0.00 77 1028.1
20260509171342 62 342 3.0 8.0 0.00 0.00 0.00 78 1028.2
20260509170844 62 321 3.0 8.0 0.00 0.00 0.00 77 1028.3
20260509170338 62 33 3.0 7.0 0.00 0.00 0.00 77 1028.3
20260509165837 61 17 2.0 5.0 0.00 0.00 0.00 80 1028.3
20260509165337 61 34 3.0 6.0 0.00 0.00 0.00 80 1028.3
20260509164837 60 12 2.0 6.0 0.00 0.00 0.00 80 1028.4
20260509164337 60 5 2.0 5.0 0.00 0.00 0.00 82 1028.4
20260509163837 60 70 3.0 6.0 0.00 0.00 0.00 81 1028.5
20260509163332 59 24 3.0 8.0 0.00 0.00 0.00 82 1028.7
20260509162831 59 290 3.0 8.0 0.00 0.00 0.00 82 1028.8
20260509162331 59 11 2.0 6.0 0.00 0.00 0.00 83 1028.9
20260509161831 59 284 2.0 5.0 0.00 0.00 0.00 83 1029.1
20260509161331 58 5 3.0 7.0 0.00 0.00 0.00 83 1029.1
20260509160832 58 31 3.0 7.0 0.00 0.00 0.00 83 1029.2
20260509160328 58 344 2.0 6.0 0.00 0.00 0.00 83 1029.1
20260509155826 57 259 2.0 5.0 0.00 0.00 0.00 84 1029.1
20260509155325 57 61 3.0 7.0 0.00 0.00 0.00 84 1029.0
20260509154826 56 52 3.0 9.0 0.00 0.00 0.00 84 1029.0
20260509154325 56 0 3.0 9.0 0.00 0.00 0.00 85 1029.0
20260509153826 56 47 3.0 8.0 0.00 0.00 0.00 86 1029.1
20260509153323 55 350 2.0 8.0 0.00 0.00 0.00 86 1029.2
20260509152820 55 58 2.0 9.0 0.00 0.00 0.00 87 1029.2
20260509152322 54 36 2.0 9.0 0.00 0.00 0.00 88 1029.2
20260509151820 54 34 2.0 6.0 0.00 0.00 0.00 88 1029.4
20260509151319 53 331 2.0 5.0 0.00 0.00 0.00 89 1029.4
20260509150819 53 311 2.0 5.0 0.00 0.00 0.00 89 1029.6
20260509150312 53 40 2.0 5.0 0.00 0.00 0.00 89 1029.5
20260509145812 53 51 2.0 6.0 0.00 0.00 0.00 89 1029.5
20260509145313 52 21 2.0 6.0 0.00 0.00 0.00 90 1029.5
20260509144813 52 0 1.0 4.0 0.00 0.00 0.00 90 1029.7
20260509144313 51 77 1.0 4.0 0.00 0.00 0.00 91 1029.7
20260509143813 51 105 1.0 3.0 0.00 0.00 0.00 91 1029.5
20260509143308 51 32 1.0 5.0 0.00 0.00 0.00 91 1029.5
20260509142807 51 355 1.0 5.0 0.00 0.00 0.00 92 1029.4
20260509142307 50 61 1.0 4.0 0.00 0.00 0.00 92 1029.5
20260509141806 50 55 0.0 4.0 0.00 0.00 0.00 93 1029.4
20260509141306 49 323 0.0 2.0 0.00 0.00 0.00 93 1029.4
20260509140807 49 0 0.0 2.0 0.00 0.00 0.00 93 1029.5
20260509140301 49 317 0.0 2.0 0.00 0.00 0.00 93 1029.6
20260509135800 48 317 0.0 1.0 0.00 0.00 0.00 94 1029.5
20260509135257 48 317 0.0 1.0 0.00 0.00 0.00 94 1029.6
20260509134755 47 323 0.0 1.0 0.00 0.00 0.00 93 1029.4
20260509134256 47 323 0.0 0.0 0.00 0.00 0.00 93 1029.4
20260509133752 46 323 0.0 0.0 0.00 0.00 0.00 93 1029.3
20260509133250 45 323 0.0 0.0 0.00 0.00 0.00 92 1029.4
20260509132752 46 323 0.0 0.0 0.00 0.00 0.00 92 1029.4
20260509132250 45 323 0.0 0.0 0.00 0.00 0.00 92 1029.4
20260509131749 45 323 0.0 0.0 0.00 0.00 0.00 92 1029.4
20260509131250 46 323 0.0 0.0 0.00 0.00 0.00 91 1029.4
20260509130744 46 323 0.0 0.0 0.00 0.00 0.00 91 1029.4
20260509130243 46 323 0.0 0.0 0.00 0.00 0.00 91 1029.4
20260509125742 46 323 0.0 0.0 0.00 0.00 0.00 91 1029.4
20260509125240 46 323 0.0 0.0 0.00 0.00 0.00 91 1029.3
20260509124741 47 323 0.0 0.0 0.00 0.00 0.00 91 1029.5
20260509124240 47 323 0.0 0.0 0.00 0.00 0.00 91 1029.4
20260509123740 47 322 0.0 0.0 0.00 0.00 0.00 91 1029.4
20260509123241 47 323 0.0 0.0 0.00 0.00 0.00 91 1029.3
20260509122741 47 323 0.0 1.0 0.00 0.00 0.00 91 1029.5
20260509122242 48 323 0.0 1.0 0.00 0.00 0.00 91 1029.5
20260509121740 48 323 0.0 1.0 0.00 0.00 0.00 91 1029.5
20260509121245 48 323 0.0 0.0 0.00 0.00 0.00 91 1029.7
20260509120742 48 323 0.0 1.0 0.00 0.00 0.00 91 1029.7
20260509120241 48 323 0.0 1.0 0.00 0.00 0.00 91 1029.5
20260509115736 49 323 0.0 0.0 0.00 0.00 0.00 90 1029.7
20260509115238 49 323 0.0 0.0 0.00 0.00 0.00 90 1029.7
20260509114736 49 323 0.0 0.0 0.00 0.00 0.00 90 1029.4
20260509114237 49 323 0.0 1.0 0.00 0.00 0.00 90 1029.7
20260509113738 49 0 0.0 1.0 0.00 0.00 0.00 90 1029.5
20260509113233 50 323 0.0 1.0 0.00 0.00 0.00 90 1029.5
20260509112733 50 323 0.0 1.0 0.00 0.00 0.00 90 1029.4
20260509112232 50 323 0.0 1.0 0.00 0.00 0.00 91 1029.5
20260509111732 50 323 0.0 2.0 0.00 0.00 0.00 91 1029.5
20260509111237 50 322 0.0 2.0 0.00 0.00 0.00 91 1029.5
20260509110732 50 323 0.0 3.0 0.00 0.00 0.00 91 1029.7
20260509110232 50 323 0.0 3.0 0.00 0.00 0.00 91 1029.7
20260509105732 50 323 0.0 3.0 0.00 0.00 0.00 91 1029.8
20260509105233 50 323 1.0 3.0 0.00 0.00 0.00 91 1030.0
20260509104729 50 323 1.0 3.0 0.00 0.00 0.00 91 1030.0
20260509104229 50 319 0.0 2.0 0.00 0.00 0.00 91 1030.0
20260509103729 50 319 1.0 3.0 0.00 0.00 0.00 91 1030.0
20260509103228 50 319 1.0 3.0 0.00 0.00 0.00 91 1030.1
20260509102726 50 0 0.0 2.0 0.00 0.00 0.00 91 1030.0
20260509102226 50 339 0.0 2.0 0.00 0.00 0.00 91 1030.0
20260509101723 50 340 0.0 2.0 0.00 0.00 0.00 90 1030.0
20260509101222 50 339 0.0 0.0 0.00 0.00 0.00 91 1029.9
20260509100720 50 0 0.0 0.0 0.00 0.00 0.00 90 1030.0
20260509100221 50 340 0.0 0.0 0.00 0.00 0.00 90 1030.0
20260509095720 51 339 0.0 0.0 0.00 0.00 0.00 90 1029.9
20260509095219 51 340 0.0 0.0 0.00 0.00 0.00 90 1030.1
20260509094718 51 0 0.0 0.0 0.00 0.00 0.00 90 1030.1
20260509094216 51 339 0.0 0.0 0.00 0.00 0.00 90 1030.0
20260509093714 51 339 0.0 1.0 0.00 0.00 0.00 90 1030.1
20260509093214 51 340 0.0 1.0 0.00 0.00 0.00 89 1030.1
20260509092714 52 340 0.0 2.0 0.00 0.00 0.00 89 1030.1
20260509092214 52 340 0.0 2.0 0.00 0.00 0.00 89 1030.3
20260509091712 52 340 0.0 2.0 0.00 0.00 0.00 89 1030.2
20260509091211 52 338 1.0 3.0 0.00 0.00 0.00 89 1030.2
20260509090711 52 341 1.0 3.0 0.00 0.00 0.00 89 1030.3
20260509090211 52 300 0.0 2.0 0.00 0.00 0.00 89 1030.3
20260509085708 52 300 0.0 2.0 0.00 0.00 0.00 89 1030.3
20260509085208 53 300 0.0 2.0 0.00 0.00 0.00 89 1030.4
20260509084703 53 300 1.0 3.0 0.00 0.00 0.00 89 1030.5
20260509084202 53 299 1.0 3.0 0.00 0.00 0.00 89 1030.4
20260509083702 53 298 0.0 2.0 0.00 0.00 0.00 89 1030.6
20260509083202 53 298 0.0 2.0 0.00 0.00 0.00 89 1030.6
20260509082702 53 299 1.0 2.0 0.00 0.00 0.00 88 1030.7
20260509082201 53 299 0.0 2.0 0.00 0.00 0.00 88 1030.7
20260509081659 53 299 0.0 2.0 0.00 0.00 0.00 88 1030.7
20260509081158 53 298 0.0 2.0 0.00 0.00 0.00 88 1030.8
20260509080656 53 297 0.0 2.0 0.00 0.00 0.00 87 1030.8
20260509080156 53 298 0.0 1.0 0.00 0.00 0.00 87 1030.8
20260509075656 54 297 0.0 2.0 0.00 0.00 0.00 87 1030.7
20260509075157 54 298 0.0 2.0 0.00 0.00 0.00 87 1030.7
20260509074654 54 298 1.0 2.0 0.00 0.00 0.00 87 1030.8
20260509074152 53 298 1.0 2.0 0.00 0.00 0.00 88 1030.8
20260509073653 53 300 0.0 3.0 0.00 0.00 0.00 88 1030.8
20260509073152 53 300 0.0 3.0 0.00 0.00 0.00 88 1030.9
20260509072650 53 275 0.0 2.0 0.00 0.00 0.00 87 1030.8
20260509072151 53 273 0.0 0.0 0.00 0.00 0.00 87 1030.8
20260509071649 54 274 0.0 0.0 0.00 0.00 0.00 87 1030.9
20260509071148 54 275 0.0 1.0 0.00 0.00 0.00 87 1030.7
20260509070649 54 274 0.0 1.0 0.00 0.00 0.00 87 1030.7
20260509070148 54 274 0.0 0.0 0.00 0.00 0.00 86 1030.7
20260509065648 54 273 0.0 0.0 0.00 0.00 0.00 85 1030.5
20260509065149 55 273 0.0 0.0 0.00 0.00 0.00 85 1030.5
20260509064647 55 275 0.0 0.0 0.00 0.00 0.00 85 1030.6
20260509064144 56 274 0.0 0.0 0.00 0.00 0.00 84 1030.6
20260509063642 56 275 0.0 0.0 0.00 0.00 0.00 83 1030.6
20260509063142 56 274 0.0 0.0 0.00 0.00 0.00 82 1030.7
20260509062643 57 274 0.0 0.0 0.00 0.00 0.00 82 1030.6
20260509062142 57 274 0.0 0.0 0.00 0.00 0.00 82 1030.6
20260509061643 57 274 0.0 1.0 0.00 0.00 0.00 81 1030.7
20260509061138 57 274 0.0 3.0 0.00 0.00 0.00 81 1030.6
20260509060639 58 274 1.0 3.0 0.00 0.00 0.00 81 1030.6
20260509060136 58 266 1.0 3.0 0.00 0.00 0.00 81 1030.6
20260509055636 58 269 1.0 3.0 0.00 0.00 0.00 81 1030.6
20260509055136 58 269 1.0 3.0 0.00 0.00 0.00 81 1030.8
20260509054636 58 308 0.0 2.0 0.00 0.00 0.00 80 1030.7
20260509054130 58 309 0.0 2.0 0.00 0.00 0.00 80 1030.7
20260509053630 58 308 1.0 3.0 0.00 0.00 0.00 80 1030.9
20260509053130 59 308 1.0 3.0 0.00 0.00 0.00 80 1030.7
20260509052629 59 258 1.0 3.0 0.00 0.00 0.00 79 1030.8
20260509052130 59 266 0.0 3.0 0.00 0.00 0.00 79 1030.7
20260509051631 59 294 0.0 2.0 0.00 0.00 0.00 79 1030.7
20260509051124 59 293 0.0 2.0 0.00 0.00 0.00 79 1030.6
20260509050622 59 294 1.0 3.0 0.00 0.00 0.00 78 1030.6
20260509050121 59 294 1.0 3.0 0.00 0.00 0.00 78 1030.5
20260509045618 60 294 1.0 3.0 0.00 0.00 0.00 78 1030.5
20260509045119 60 312 0.0 3.0 0.00 0.00 0.00 77 1030.5
20260509044613 60 284 1.0 4.0 0.00 0.00 0.00 77 1030.3
20260509044112 60 282 1.0 4.0 0.00 0.00 0.00 76 1030.3
20260509043612 61 305 2.0 4.0 0.00 0.00 0.00 76 1030.3
20260509043112 61 327 2.0 6.0 0.00 0.00 0.00 76 1030.3
20260509042612 61 243 2.0 6.0 0.00 0.00 0.00 76 1030.2
20260509042112 61 284 2.0 5.0 0.00 0.00 0.00 75 1030.2
20260509041607 61 346 2.0 5.0 0.00 0.00 0.00 75 1030.1
20260509041106 61 313 2.0 4.0 0.00 0.00 0.00 75 1030.2
20260509040605 62 302 2.0 6.0 0.00 0.00 0.00 74 1030.1
20260509040106 62 349 2.0 6.0 0.00 0.00 0.00 74 1030.1
20260509035606 62 355 1.0 4.0 0.00 0.00 0.00 74 1030.0
20260509035107 62 274 2.0 9.0 0.00 0.00 0.00 73 1030.0
20260509034601 62 0 2.0 9.0 0.00 0.00 0.00 73 1029.8
20260509034100 63 264 3.0 9.0 0.00 0.00 0.00 72 1029.9
20260509033559 63 257 2.0 9.0 0.00 0.00 0.00 72 1029.9
20260509033059 63 246 2.0 8.0 0.00 0.00 0.00 71 1029.9
20260509032600 64 311 2.0 6.0 0.00 0.00 0.00 71 1029.8
20260509032101 64 298 3.0 7.0 0.00 0.00 0.00 70 1029.9
20260509031555 64 271 3.0 8.0 0.00 0.00 0.00 70 1029.9
20260509031055 65 319 3.0 8.0 0.00 0.00 0.00 69 1029.9
20260509030554 65 277 3.0 7.0 0.00 0.00 0.00 69 1029.7
20260509030058 66 304 3.0 6.0 0.00 0.00 0.00 68 1029.7
20260509025554 66 282 3.0 6.0 0.00 0.00 0.00 67 1029.7
20260509025055 67 271 2.0 6.0 0.00 0.00 0.00 66 1029.6
20260509024552 67 286 2.0 6.0 0.00 0.00 0.00 66 1029.7
20260509024052 67 355 3.0 6.0 0.00 0.00 0.00 64 1029.5
20260509023553 68 329 2.0 6.0 0.00 0.00 0.00 63 1029.5
20260509023050 68 275 2.0 6.0 0.00 0.00 0.00 62 1029.4
20260509022547 69 284 2.0 6.0 0.00 0.00 0.00 62 1029.3
20260509022049 69 261 2.0 6.0 0.00 0.00 0.00 61 1029.3
20260509021543 69 265 2.0 5.0 0.00 0.00 0.00 61 1029.3
20260509021041 69 284 2.0 5.0 0.00 0.00 0.00 61 1029.4
20260509020542 69 290 2.0 5.0 0.00 0.00 0.00 61 1029.3
20260509020041 69 350 2.0 6.0 0.00 0.00 0.00 61 1029.3
20260509015542 69 288 3.0 6.0 0.00 0.00 0.00 62 1029.4
20260509015042 69 278 3.0 7.0 0.00 0.00 0.00 61 1029.4
20260509014537 69 283 2.0 7.0 0.00 0.00 0.00 60 1029.3
20260509014034 69 265 3.0 6.0 0.00 0.00 0.00 60 1029.3
20260509013534 70 261 3.0 7.0 0.00 0.00 0.00 60 1029.4
20260509013035 70 284 3.0 7.0 0.00 0.00 0.00 59 1029.4
20260509012533 70 267 3.0 8.0 0.00 0.00 0.00 59 1029.5
20260509012034 71 0 2.0 8.0 0.00 0.00 0.00 58 1029.5
20260509011531 71 222 3.0 8.0 0.00 0.00 0.00 59 1029.7
20260509011030 71 246 3.0 8.0 0.00 0.00 0.00 59 1029.8
20260509010528 71 316 2.0 5.0 0.00 0.00 0.00 59 1029.9
20260509010028 71 328 1.0 7.0 0.00 0.00 0.00 58 1029.8
20260509005527 71 0 1.0 7.0 0.00 0.00 0.00 59 1029.6
20260509005028 70 288 1.0 6.0 0.00 0.00 0.00 60 1029.8
20260509004521 70 333 1.0 6.0 0.00 0.00 0.00 61 1029.8
20260509004021 70 265 2.0 8.0 0.00 0.00 0.00 59 1029.9
20260509003523 70 282 2.0 8.0 0.00 0.00 0.00 59 1029.9
20260509003020 70 258 2.0 6.0 0.00 0.00 0.00 58 1029.9
20260509002519 70 23 2.0 6.0 0.00 0.00 0.00 60 1030.1
20260509002020 71 250 3.0 10.0 0.00 0.00 0.00 57 1030.0
20260509001519 71 277 3.0 10.0 0.00 0.00 0.00 57 1030.0
20260509001021 71 343 3.0 7.0 0.00 0.00 0.00 57 1030.0
20260509000516 72 303 3.0 7.0 0.00 0.00 0.00 56 1029.9
20260509000016 71 0 3.0 9.0 0.00 0.00 0.00 57 1029.9
20260508235517 71 12 3.0 9.0 0.00 0.00 0.00 57 1030.0
20260508235015 71 275 2.0 9.0 0.00 0.00 0.00 57 1029.9
20260508234515 71 290 2.0 9.0 0.00 0.00 0.00 56 1030.0
20260508234017 71 227 2.0 6.0 0.00 0.00 0.00 57 1030.0
20260508233511 71 232 2.0 6.0 0.00 0.00 0.00 57 1030.0
20260508233011 71 270 3.0 6.0 0.00 0.00 0.00 56 1030.0
20260508232512 71 215 3.0 9.0 0.00 0.00 0.00 56 1030.0
20260508232012 71 229 2.0 9.0 0.00 0.00 0.00 57 1030.1
20260508231511 71 238 2.0 6.0 0.00 0.00 0.00 57 1030.1
20260508231013 71 179 2.0 9.0 0.00 0.00 0.00 57 1030.2